Gardner, KS

2:22 PM CDT on August 27, 2016 (GMT -0500)
New Century Aircenter

Weather History for KIXD - January, 2013

Change the Weather History Date:

Saturday, January 5, 2013

  Actual Average Record
Temperature  
Mean Temperature 35 °F -  
Max Temperature 42 °F 37 °F 64 °F (2012)
Min Temperature 28 °F 19 °F -2 °F (2014)
Degree Days  
Heating Degree Days 30    
Moisture  
Dew Point 27 °F    
Average Humidity 72    
Maximum Humidity 79    
Minimum Humidity 62    
Precipitation  
Precipitation 0.00 in - - ()
Sea Level Pressure  
Sea Level Pressure 30.19 in    
Wind  
Wind Speed 11 mph (SW)    
Max Wind Speed 20 mph    
Max Gust Speed 29 mph    
Visibility 10 miles    
Events      
Averages and records for this station are not official NWS values.
T = Trace of Precipitation, MM = Missing Value Source: NWS Daily Summary

Daily Weather History Graph

Daily Weather History Graph

Search for Another Location

Airport or City:

Trip Planner

Search our weather history database for the weather conditions in past years. The results will help you decide how hot, cold, wet, or windy it might be!

Date:

Astronomy

Jan. 05, 2013 Rise Set
Actual Time 7:38 AM CST 5:12 PM CST
Civil Twilight 7:08 AM CST 5:41 PM CST
Nautical Twilight 6:35 AM CST 6:15 PM CST
Astronomical Twilight 6:03 AM CST 6:47 PM CST
Moon 12:47 AM CST (1/5) 12:00 PM CST (1/5)
Length of Visible Light 10h 33m
Length of Day
9h 33m
Last Quarter, 44% of the Moon is Illuminated
Jan 5
Last Quarter
Jan 11
New
Jan 18
First Quarter
Jan 26
Full
Feb 3
Last Quarter

Hourly Weather History & Observations

Time (CST) Temp. Windchill Dew Point Humidity Pressure Visibility Wind Dir Wind Speed Gust Speed Precip Events Conditions
12:53 AM 28.0 °F 20.8 °F 19.9 °F 72% 30.26 in 10.0 mi South 6.9 mph - N/A   Clear
1:53 AM 33.1 °F 23.9 °F 23.0 °F 66% 30.25 in 10.0 mi SSW 12.7 mph - N/A   Clear
2:53 AM 30.9 °F 22.2 °F 21.9 °F 69% 30.24 in 10.0 mi SSW 10.4 mph - N/A   Clear
3:53 AM 32.0 °F 24.2 °F 23.0 °F 69% 30.24 in 10.0 mi SSW 9.2 mph - N/A   Overcast
4:53 AM 35.1 °F 26.4 °F 25.0 °F 67% 30.21 in 10.0 mi South 12.7 mph - N/A   Overcast
5:53 AM 34.0 °F 27.2 °F 26.1 °F 73% 30.21 in 10.0 mi South 8.1 mph - N/A   Mostly Cloudy
7:53 AM 34.0 °F 26.0 °F 28.0 °F 79% 30.21 in 10.0 mi South 10.4 mph - N/A   Overcast
8:53 AM 34.0 °F 26.0 °F 27.0 °F 75% 30.21 in 10.0 mi South 10.4 mph - N/A   Mostly Cloudy
9:53 AM 35.1 °F 26.4 °F 28.0 °F 76% 30.21 in 10.0 mi South 12.7 mph - N/A   Overcast
10:53 AM 37.0 °F 27.7 °F 30.0 °F 76% 30.20 in 10.0 mi SSW 16.1 mph - N/A   Overcast
11:53 AM 39.0 °F 30.3 °F 30.9 °F 73% 30.18 in 10.0 mi SSW 16.1 mph 23.0 mph N/A   Overcast
12:53 PM 39.9 °F 30.5 °F 30.9 °F 70% 30.12 in 10.0 mi SSW 19.6 mph 28.8 mph N/A   Overcast
1:53 PM 41.0 °F 33.5 °F 32.0 °F 70% 30.09 in 10.0 mi SW 13.8 mph - N/A   Mostly Cloudy
2:53 PM 42.1 °F 35.2 °F 32.0 °F 67% 30.08 in 10.0 mi SSW 12.7 mph - N/A   Overcast
3:53 PM 42.1 °F 34.5 °F 30.0 °F 62% 30.11 in 10.0 mi SW 15.0 mph 21.9 mph N/A   Partly Cloudy
5:53 PM 37.0 °F 31.0 °F 30.0 °F 76% 30.13 in 10.0 mi SW 8.1 mph - N/A   Partly Cloudy
6:53 PM 37.0 °F 30.4 °F 28.9 °F 73% 30.15 in 10.0 mi West 9.2 mph - N/A   Clear
7:53 PM 34.0 °F 25.5 °F 27.0 °F 75% 30.18 in 10.0 mi West 11.5 mph - N/A   Clear
8:53 PM 30.9 °F 23.5 °F 25.0 °F 79% 30.19 in 10.0 mi West 8.1 mph - N/A   Clear
9:53 PM 30.0 °F 22.4 °F 23.0 °F 75% 30.20 in 10.0 mi West 8.1 mph - N/A   Clear
10:53 PM 28.9 °F 21.9 °F 21.9 °F 75% 30.20 in 10.0 mi WSW 6.9 mph - N/A   Clear
11:53 PM 28.9 °F 21.9 °F 21.9 °F 75% 30.20 in 10.0 mi West 6.9 mph - N/A   Clear